Starlink 30296

operational
NORAD ID: 57671 Int'l Des: 2023-124 Owner: SPXS Country: US Constellation: starlink
LEOCIRCULAR

Starlink 30296について

説明を読み込み中...

リアルタイム位置

3D地球を読み込み中...

次回通過

高度履歴

Altitude vs Time

uPlot chart will show altitude changes over time

軌道要素

1 57671U 23124J 25259.49196237 -.00000313 00000-0 15841-5 0 9994
2 57671 53.1573 296.1494 0002164 91.3556 268.7692 15.30184421116893
Epoch: Sep 16, 2025 • Age: 39 hours

現在のステータス

高度 494.8 km
速度 7.62 km/s
衛星直下点 -52.30°S, 147.54°E
打ち上げ日 Aug 22, 2023
運用期間 2 years
タイプ internet

技術仕様

分類 Payload
質量 730.00 kg
乾燥質量 700.00 kg
総質量 730.00 kg
長さ 0.30 m
直径 4.10 m
スパン 29.00 m
形状 Box + pan
製造者 SPXS
バスタイプ Starlink V2M
フェーズステータス In Orbit
所有者/国 SPXS/US

大規模コンステレーション

Loading constellations...